LNI740 WADD-WAAA

Flight info

Callsign LNI740
Flight time 0h 55m
Altitude 27000
Route PEDET W41 LIPOT
Aircraft B738/M-SDE2E3FGHIRWXY/LB1

Departure

Time 2026-04-22 12:44
Airport Denpasar I Gusti Ngurah Rai International Airport (WADD)

Arrival

Time 2026-04-22 13:40
Airport Sultan Hasanuddin International Airport (WAAA)
Time Latitude Longitude Altitude Speed Heading
2026-04-22 12:14 -8.74421 115.16121 32 ft 0 kts 88°
2026-04-22 12:34 -8.74421 115.16107 32 ft 4 kts 88°
2026-04-22 12:34 -8.74422 115.16084 32 ft 4 kts 99°
2026-04-22 12:34 -8.74417 115.16069 32 ft 4 kts 135°
2026-04-22 12:35 -8.74395 115.16061 32 ft 4 kts 179°
2026-04-22 12:35 -8.74383 115.16060 32 ft 0 kts 178°
2026-04-22 12:38 -8.74383 115.16061 32 ft 1 kts 178°
2026-04-22 12:38 -8.74406 115.16061 32 ft 6 kts 178°
2026-04-22 12:38 -8.74472 115.16064 32 ft 13 kts 178°
2026-04-22 12:38 -8.74568 115.16068 32 ft 14 kts 178°
2026-04-22 12:39 -8.74661 115.16070 32 ft 13 kts 189°
2026-04-22 12:39 -8.74712 115.15917 32 ft 13 kts 268°
2026-04-22 12:39 -8.74716 115.15817 32 ft 16 kts 268°
2026-04-22 12:40 -8.74721 115.15699 32 ft 18 kts 268°
2026-04-22 12:40 -8.74726 115.15564 31 ft 12 kts 268°
2026-04-22 12:40 -8.74729 115.15508 31 ft 6 kts 268°
2026-04-22 12:40 -8.74730 115.15469 31 ft 6 kts 268°
2026-04-22 12:41 -8.74735 115.15431 31 ft 6 kts 254°
2026-04-22 12:41 -8.74772 115.15392 31 ft 7 kts 195°
2026-04-22 12:41 -8.74804 115.15392 30 ft 5 kts 178°
2026-04-22 12:41 -8.74855 115.15393 28 ft 10 kts 178°
2026-04-22 12:42 -8.74897 115.15435 28 ft 5 kts 88°
2026-04-22 12:42 -8.74897 115.15438 28 ft 0 kts 87°
2026-04-22 12:43 -8.74895 115.15488 28 ft 27 kts 87°
2026-04-22 12:44 -8.74875 115.15954 28 ft 104 kts 88°
2026-04-22 12:44 -8.74835 115.16917 52 ft 166 kts 87°
2026-04-22 12:44 -8.74792 115.18184 594 ft 184 kts 87°
2026-04-22 12:44 -8.74730 115.19463 1682 ft 177 kts 85°
2026-04-22 12:45 -8.74669 115.20722 2518 ft 189 kts 86°
2026-04-22 12:45 -8.74612 115.22151 2855 ft 219 kts 87°
2026-04-22 12:45 -8.74549 115.23763 3244 ft 239 kts 87°
2026-04-22 12:45 -8.74480 115.25535 3579 ft 260 kts 87°
2026-04-22 12:46 -8.74406 115.27394 4369 ft 267 kts 87°
2026-04-22 12:46 -8.74330 115.29273 5371 ft 268 kts 87°
2026-04-22 12:46 -8.74254 115.31166 6301 ft 271 kts 87°
2026-04-22 12:46 -8.74176 115.33064 7143 ft 275 kts 87°
2026-04-22 12:47 -8.74095 115.35017 7968 ft 280 kts 87°
2026-04-22 12:47 -8.73975 115.36994 8769 ft 284 kts 78°
2026-04-22 12:47 -8.73115 115.38785 9517 ft 288 kts 48°
2026-04-22 12:47 -8.71718 115.40234 10356 ft 290 kts 45°
2026-04-22 12:48 -8.70238 115.41728 10667 ft 313 kts 45°
2026-04-22 12:48 -8.68642 115.43338 10858 ft 336 kts 45°
2026-04-22 12:48 -8.66956 115.45046 11273 ft 348 kts 45°
2026-04-22 12:48 -8.65238 115.46796 11982 ft 351 kts 45°
2026-04-22 12:49 -8.63521 115.48553 12779 ft 352 kts 45°
2026-04-22 12:49 -8.61796 115.50324 13471 ft 355 kts 45°
2026-04-22 12:49 -8.60056 115.52115 14090 ft 360 kts 45°
2026-04-22 12:49 -8.58316 115.53909 14695 ft 364 kts 45°
2026-04-22 12:50 -8.56509 115.55773 15318 ft 368 kts 45°
2026-04-22 12:50 -8.54734 115.57605 15890 ft 372 kts 45°
2026-04-22 12:50 -8.52916 115.59482 16483 ft 375 kts 45°
2026-04-22 12:50 -8.51079 115.61379 17051 ft 378 kts 45°
2026-04-22 12:51 -8.49230 115.63288 17600 ft 382 kts 45°
2026-04-22 12:51 -8.47365 115.65213 18134 ft 385 kts 45°
2026-04-22 12:51 -8.45482 115.67155 18650 ft 388 kts 45°
2026-04-22 12:51 -8.43584 115.69114 19157 ft 391 kts 45°
2026-04-22 12:52 -8.41675 115.71083 19621 ft 395 kts 45°
2026-04-22 12:52 -8.39738 115.73083 20049 ft 399 kts 45°
2026-04-22 12:52 -8.37788 115.75093 20517 ft 402 kts 45°
2026-04-22 12:52 -8.35847 115.77094 20973 ft 404 kts 45°
2026-04-22 12:53 -8.33848 115.79154 21379 ft 409 kts 45°
2026-04-22 12:53 -8.31905 115.81157 21793 ft 411 kts 45°
2026-04-22 12:53 -8.29879 115.83245 22204 ft 413 kts 45°
2026-04-22 12:53 -8.27860 115.85325 22598 ft 416 kts 45°
2026-04-22 12:54 -8.25848 115.87399 22922 ft 420 kts 45°
2026-04-22 12:54 -8.23793 115.89516 23266 ft 423 kts 45°
2026-04-22 12:54 -8.21731 115.91640 23632 ft 425 kts 45°
2026-04-22 12:54 -8.19655 115.93777 23976 ft 427 kts 45°
2026-04-22 12:55 -8.17568 115.95927 24292 ft 429 kts 45°
2026-04-22 12:55 -8.15468 115.98088 24612 ft 432 kts 45°
2026-04-22 12:55 -8.13359 116.00260 24936 ft 434 kts 45°
2026-04-22 12:55 -8.11250 116.02430 25315 ft 434 kts 45°
2026-04-22 12:56 -8.09140 116.04601 25778 ft 432 kts 45°
2026-04-22 12:56 -8.07044 116.06757 26284 ft 429 kts 45°
2026-04-22 12:56 -8.04962 116.08898 26727 ft 428 kts 45°
2026-04-22 12:56 -8.02867 116.11052 26927 ft 432 kts 45°
2026-04-22 12:57 -8.00743 116.13238 26926 ft 438 kts 45°
2026-04-22 12:57 -7.98588 116.15453 26933 ft 444 kts 45°
2026-04-22 12:57 -7.96419 116.17684 26939 ft 449 kts 45°
2026-04-22 12:57 -7.94247 116.19918 26933 ft 454 kts 45°
2026-04-22 12:58 -7.92023 116.22203 26936 ft 458 kts 45°
2026-04-22 12:58 -7.89784 116.24503 26937 ft 461 kts 45°
2026-04-22 12:58 -7.87535 116.26814 26934 ft 464 kts 45°
2026-04-22 12:58 -7.85262 116.29147 26927 ft 467 kts 45°
2026-04-22 12:59 -7.82977 116.31494 26928 ft 470 kts 45°
2026-04-22 12:59 -7.80683 116.33850 26933 ft 471 kts 45°
2026-04-22 12:59 -7.78380 116.36215 26938 ft 473 kts 45°
2026-04-22 12:59 -7.76070 116.38588 26935 ft 474 kts 45°
2026-04-22 13:00 -7.73760 116.40958 26931 ft 475 kts 45°
2026-04-22 13:00 -7.71442 116.43335 26936 ft 476 kts 45°
2026-04-22 13:00 -7.69118 116.45719 26937 ft 476 kts 45°
2026-04-22 13:00 -7.66794 116.48104 26932 ft 476 kts 45°
2026-04-22 13:01 -7.64471 116.50488 26937 ft 476 kts 45°
2026-04-22 13:01 -7.62151 116.52868 26936 ft 475 kts 45°
2026-04-22 13:01 -7.59841 116.55237 26934 ft 474 kts 45°
2026-04-22 13:01 -7.57528 116.57610 26935 ft 474 kts 45°
2026-04-22 13:02 -7.55217 116.59979 26937 ft 473 kts 45°
2026-04-22 13:02 -7.52936 116.62317 26934 ft 472 kts 45°
2026-04-22 13:02 -7.50646 116.64695 26925 ft 472 kts 47°
2026-04-22 13:02 -7.48466 116.67169 26924 ft 471 kts 49°
2026-04-22 13:03 -7.46355 116.69685 26928 ft 471 kts 50°
2026-04-22 13:03 -7.44265 116.72224 26926 ft 471 kts 50°
2026-04-22 13:03 -7.42177 116.74767 26928 ft 470 kts 50°
2026-04-22 13:03 -7.40083 116.77305 26925 ft 470 kts 50°
2026-04-22 13:04 -7.37981 116.79838 26926 ft 470 kts 50°
2026-04-22 13:04 -7.35872 116.82366 26925 ft 471 kts 50°
2026-04-22 13:04 -7.33760 116.84889 26923 ft 471 kts 50°
2026-04-22 13:04 -7.31672 116.87379 26929 ft 471 kts 50°
2026-04-22 13:05 -7.29533 116.89927 26925 ft 471 kts 50°
2026-04-22 13:05 -7.27443 116.92416 26925 ft 471 kts 50°
2026-04-22 13:05 -7.25323 116.94942 26927 ft 472 kts 50°
2026-04-22 13:05 -7.23202 116.97468 26927 ft 472 kts 50°
2026-04-22 13:06 -7.21087 116.99988 26926 ft 472 kts 50°
2026-04-22 13:06 -7.18966 117.02514 26928 ft 472 kts 50°
2026-04-22 13:06 -7.16844 117.05043 26926 ft 472 kts 50°
2026-04-22 13:06 -7.14720 117.07572 26927 ft 472 kts 50°
2026-04-22 13:07 -7.12596 117.10101 26926 ft 472 kts 50°
2026-04-22 13:07 -7.10473 117.12628 26926 ft 472 kts 50°
2026-04-22 13:07 -7.08356 117.15149 26926 ft 473 kts 50°
2026-04-22 13:07 -7.06231 117.17678 26924 ft 472 kts 50°
2026-04-22 13:08 -7.04106 117.20207 26920 ft 473 kts 50°
2026-04-22 13:08 -7.01982 117.22734 26917 ft 473 kts 50°
2026-04-22 13:08 -6.99857 117.25261 26915 ft 473 kts 50°
2026-04-22 13:08 -6.97731 117.27789 26917 ft 473 kts 50°
2026-04-22 13:09 -6.95631 117.30288 26918 ft 473 kts 50°
2026-04-22 13:09 -6.93502 117.32820 26917 ft 473 kts 50°
2026-04-22 13:09 -6.91383 117.35340 26918 ft 472 kts 50°
2026-04-22 13:09 -6.89255 117.37867 26915 ft 473 kts 50°
2026-04-22 13:10 -6.87128 117.40395 26917 ft 473 kts 50°
2026-04-22 13:10 -6.85003 117.42921 26917 ft 473 kts 50°
2026-04-22 13:10 -6.82871 117.45455 26915 ft 473 kts 50°
2026-04-22 13:10 -6.80748 117.47977 26916 ft 473 kts 50°
2026-04-22 13:11 -6.78613 117.50513 26917 ft 473 kts 50°
2026-04-22 13:11 -6.76522 117.52996 26915 ft 473 kts 50°
2026-04-22 13:11 -6.74395 117.55522 26917 ft 473 kts 50°
2026-04-22 13:11 -6.72268 117.58049 26915 ft 473 kts 50°
2026-04-22 13:12 -6.70148 117.60566 26911 ft 472 kts 50°
2026-04-22 13:12 -6.68016 117.63086 26908 ft 472 kts 49°
2026-04-22 13:12 -6.65741 117.65476 26904 ft 473 kts 44°
2026-04-22 13:12 -6.63340 117.67724 26912 ft 473 kts 42°
2026-04-22 13:13 -6.60879 117.69922 26910 ft 473 kts 42°
2026-04-22 13:13 -6.58409 117.72107 26908 ft 473 kts 42°
2026-04-22 13:13 -6.55946 117.74304 26908 ft 473 kts 42°
2026-04-22 13:13 -6.53506 117.76508 26906 ft 472 kts 43°
2026-04-22 13:14 -6.51072 117.78733 26907 ft 472 kts 43°
2026-04-22 13:14 -6.48646 117.80967 26911 ft 472 kts 43°
2026-04-22 13:14 -6.46232 117.83198 26916 ft 472 kts 43°
2026-04-22 13:14 -6.43818 117.85431 26917 ft 472 kts 43°
2026-04-22 13:15 -6.41401 117.87667 26916 ft 472 kts 43°
2026-04-22 13:15 -6.38984 117.89903 26917 ft 472 kts 43°
2026-04-22 13:15 -6.36592 117.92113 26916 ft 472 kts 43°
2026-04-22 13:15 -6.34173 117.94348 26918 ft 472 kts 43°
2026-04-22 13:16 -6.31754 117.96581 26918 ft 472 kts 43°
2026-04-22 13:16 -6.29341 117.98810 26917 ft 472 kts 43°
2026-04-22 13:16 -6.26920 118.01044 26917 ft 472 kts 43°
2026-04-22 13:16 -6.24498 118.03280 26918 ft 472 kts 43°
2026-04-22 13:17 -6.22079 118.05512 26917 ft 472 kts 43°
2026-04-22 13:17 -6.19651 118.07752 26916 ft 472 kts 43°
2026-04-22 13:17 -6.17236 118.09980 26916 ft 472 kts 43°
2026-04-22 13:17 -6.14804 118.12224 26918 ft 472 kts 43°
2026-04-22 13:18 -6.12384 118.14456 26916 ft 472 kts 43°
2026-04-22 13:18 -6.09998 118.16657 26917 ft 472 kts 43°
2026-04-22 13:18 -6.07570 118.18895 26918 ft 473 kts 43°
2026-04-22 13:18 -6.05154 118.21123 26918 ft 473 kts 43°
2026-04-22 13:19 -6.02730 118.23359 26916 ft 473 kts 43°
2026-04-22 13:19 -6.00307 118.25593 26917 ft 472 kts 43°
2026-04-22 13:19 -5.97905 118.27807 26896 ft 457 kts 43°
2026-04-22 13:19 -5.95614 118.29916 26897 ft 438 kts 43°
2026-04-22 13:20 -5.93414 118.31942 26898 ft 420 kts 43°
2026-04-22 13:20 -5.91294 118.33895 26943 ft 410 kts 43°
2026-04-22 13:20 -5.89193 118.35831 26672 ft 409 kts 43°
2026-04-22 13:20 -5.87111 118.37750 26315 ft 403 kts 43°
2026-04-22 13:21 -5.85057 118.39643 25869 ft 400 kts 43°
2026-04-22 13:21 -5.83032 118.41509 25456 ft 399 kts 43°
2026-04-22 13:21 -5.81179 118.43551 24863 ft 393 kts 54°
2026-04-22 13:21 -5.80164 118.45088 24387 ft 390 kts 61°
2026-04-22 13:22 -5.78502 118.48275 23398 ft 386 kts 63°
2026-04-22 13:22 -5.77283 118.50664 22684 ft 382 kts 63°
2026-04-22 13:22 -5.76075 118.53028 22015 ft 376 kts 62°
2026-04-22 13:22 -5.75286 118.54566 21567 ft 372 kts 62°
2026-04-22 13:23 -5.73718 118.57607 20645 ft 367 kts 62°
2026-04-22 13:23 -5.72929 118.59133 20193 ft 363 kts 62°
2026-04-22 13:23 -5.71390 118.62098 19297 ft 358 kts 62°
2026-04-22 13:23 -5.70615 118.63589 18836 ft 355 kts 62°
2026-04-22 13:24 -5.69478 118.65776 18195 ft 350 kts 62°
2026-04-22 13:24 -5.68357 118.67931 17526 ft 346 kts 62°
2026-04-22 13:24 -5.67261 118.70036 16843 ft 343 kts 62°
2026-04-22 13:24 -5.66159 118.72153 16146 ft 340 kts 62°
2026-04-22 13:25 -5.65067 118.74250 15493 ft 337 kts 62°
2026-04-22 13:25 -5.63990 118.76318 14906 ft 332 kts 62°
2026-04-22 13:25 -5.62935 118.78343 14477 ft 324 kts 62°
2026-04-22 13:25 -5.61893 118.80343 14078 ft 322 kts 62°
2026-04-22 13:26 -5.60861 118.82323 13748 ft 319 kts 62°
2026-04-22 13:26 -5.59831 118.84301 13352 ft 317 kts 62°
2026-04-22 13:26 -5.58811 118.86259 12970 ft 316 kts 62°
2026-04-22 13:26 -5.57795 118.88208 12583 ft 314 kts 62°
2026-04-22 13:27 -5.56797 118.90123 12204 ft 313 kts 62°
2026-04-22 13:27 -5.55791 118.92053 11828 ft 311 kts 62°
2026-04-22 13:27 -5.54787 118.93979 11434 ft 310 kts 62°
2026-04-22 13:27 -5.53791 118.95890 11050 ft 309 kts 62°
2026-04-22 13:28 -5.52795 118.97800 10649 ft 308 kts 62°
2026-04-22 13:28 -5.51809 118.99692 10459 ft 301 kts 62°
2026-04-22 13:28 -5.50853 119.01524 10306 ft 293 kts 62°
2026-04-22 13:28 -5.49921 119.03311 10177 ft 285 kts 62°
2026-04-22 13:29 -5.49018 119.05043 10050 ft 277 kts 62°
2026-04-22 13:29 -5.48131 119.06743 9837 ft 272 kts 62°
2026-04-22 13:29 -5.47254 119.08424 9536 ft 272 kts 62°
2026-04-22 13:29 -5.46377 119.10105 9257 ft 271 kts 62°
2026-04-22 13:30 -5.45506 119.11775 8968 ft 270 kts 62°
2026-04-22 13:30 -5.44632 119.13450 8671 ft 270 kts 62°
2026-04-22 13:30 -5.43762 119.15117 8378 ft 269 kts 62°
2026-04-22 13:30 -5.42893 119.16783 8085 ft 269 kts 62°
2026-04-22 13:31 -5.42026 119.18445 7783 ft 268 kts 62°
2026-04-22 13:31 -5.41161 119.20104 7490 ft 268 kts 62°
2026-04-22 13:31 -5.40307 119.21740 7209 ft 267 kts 62°
2026-04-22 13:31 -5.39447 119.23386 6925 ft 267 kts 62°
2026-04-22 13:32 -5.38585 119.25037 6620 ft 267 kts 62°
2026-04-22 13:32 -5.37722 119.26690 6328 ft 266 kts 62°
2026-04-22 13:32 -5.36864 119.28335 6033 ft 265 kts 62°
2026-04-22 13:32 -5.36009 119.29972 5736 ft 265 kts 62°
2026-04-22 13:33 -5.35156 119.31606 5452 ft 264 kts 62°
2026-04-22 13:33 -5.34307 119.33232 5160 ft 263 kts 62°
2026-04-22 13:33 -5.33459 119.34856 4882 ft 262 kts 63°
2026-04-22 13:33 -5.32616 119.36473 4601 ft 261 kts 63°
2026-04-22 13:34 -5.31792 119.38050 4456 ft 245 kts 63°
2026-04-22 13:34 -5.31039 119.39489 4329 ft 226 kts 63°
2026-04-22 13:34 -5.30330 119.40844 4221 ft 212 kts 63°
2026-04-22 13:34 -5.29638 119.42102 4081 ft 201 kts 53°
2026-04-22 13:35 -5.28600 119.42977 4033 ft 188 kts 36°
2026-04-22 13:35 -5.27541 119.43700 3992 ft 181 kts 34°
2026-04-22 13:35 -5.26471 119.44373 3879 ft 186 kts 32°
2026-04-22 13:35 -5.25354 119.45039 3653 ft 187 kts 32°
2026-04-22 13:36 -5.24236 119.45692 3402 ft 185 kts 31°
2026-04-22 13:36 -5.23147 119.46325 3177 ft 181 kts 32°
2026-04-22 13:36 -5.22068 119.46951 2926 ft 177 kts 32°
2026-04-22 13:36 -5.20997 119.47572 2721 ft 177 kts 32°
2026-04-22 13:37 -5.19976 119.48164 2458 ft 163 kts 32°
2026-04-22 13:37 -5.19034 119.48711 2241 ft 151 kts 31°
2026-04-22 13:37 -5.18135 119.49232 2057 ft 149 kts 31°
2026-04-22 13:37 -5.17232 119.49759 1866 ft 151 kts 31°
2026-04-22 13:38 -5.16322 119.50284 1664 ft 151 kts 31°
2026-04-22 13:38 -5.14525 119.51329 1263 ft 148 kts 30°
2026-04-22 13:38 -5.13632 119.51847 1067 ft 148 kts 30°
2026-04-22 13:39 -5.12743 119.52363 869 ft 148 kts 30°
2026-04-22 13:39 -5.11852 119.52880 675 ft 147 kts 30°
2026-04-22 13:39 -5.10992 119.53379 493 ft 146 kts 30°
2026-04-22 13:39 -5.10090 119.53904 304 ft 145 kts 30°
2026-04-22 13:40 -5.09226 119.54406 80 ft 146 kts 30°
2026-04-22 13:40 -5.08395 119.54885 37 ft 121 kts 30°
2026-04-22 13:40 -5.07975 119.55128 39 ft 43 kts 30°
2026-04-22 13:40 -5.07794 119.55233 41 ft 15 kts 30°
2026-04-22 13:41 -5.07711 119.55238 41 ft 7 kts 321°
2026-04-22 13:41 -5.07686 119.55200 40 ft 7 kts 300°
2026-04-22 13:41 -5.07660 119.55155 40 ft 8 kts 300°
2026-04-22 13:41 -5.07657 119.55150 40 ft 0 kts 300°
2026-04-22 13:42 -5.07656 119.55148 40 ft 1 kts 300°
2026-04-22 13:42 -5.07649 119.55137 40 ft 3 kts 300°
2026-04-22 13:42 -5.07636 119.55112 40 ft 5 kts 299°
2026-04-22 13:42 -5.07611 119.55068 40 ft 9 kts 299°
2026-04-22 13:43 -5.07582 119.55002 40 ft 8 kts 278°
2026-04-22 13:43 -5.07590 119.54971 40 ft 5 kts 233°
2026-04-22 13:43 -5.07629 119.54947 40 ft 8 kts 210°
2026-04-22 13:43 -5.07673 119.54922 40 ft 8 kts 210°
2026-04-22 13:44 -5.07732 119.54888 39 ft 11 kts 210°
2026-04-22 13:44 -5.07794 119.54851 40 ft 10 kts 211°
2026-04-22 13:44 -5.07850 119.54830 40 ft 6 kts 162°
2026-04-22 13:44 -5.07864 119.54847 38 ft 3 kts 121°
2026-04-22 13:45 -5.07873 119.54862 40 ft 2 kts 120°
2026-04-22 13:45 -5.07880 119.54875 40 ft 2 kts 120°
2026-04-22 13:45 -5.07881 119.54877 40 ft 0 kts 120°